Duncan, OK

12:17 AM CDT on September 20, 2017 (GMT -0500)
Halliburton

Weather History for KDUC - November, 2012

Change the Weather History Date:

Friday, November 9, 2012

  Actual Average (KLAW) Record (KLAW)
Temperature  
Mean Temperature 71 °F -  
Max Temperature 82 °F 64 °F 87 °F (1980)
Min Temperature 60 °F 42 °F 20 °F (1955)
Cooling Degree Days 6    
Growing Degree Days 21 (Base 50)    
Moisture  
Dew Point 57 °F    
Average Humidity 65    
Maximum Humidity 100    
Minimum Humidity 42    
Precipitation  
Precipitation 0.00 in - - ()
Sea Level Pressure  
Sea Level Pressure 29.89 in    
Wind  
Wind Speed 12 mph (South)    
Max Wind Speed 25 mph    
Max Gust Speed 31 mph    
Visibility 10 miles    
Events      
Averages and records for this station are not official NWS values.
T = Trace of Precipitation, MM = Missing Value Source: NWS Daily Summary

Daily Weather History Graph

Daily Weather History Graph

Search for Another Location

Airport or City:

Trip Planner

Search our weather history database for the weather conditions in past years. The results will help you decide how hot, cold, wet, or windy it might be!

Date:

Astronomy

Nov. 09, 2012 Rise Set
Actual Time 7:00 AM CST 5:31 PM CST
Civil Twilight 6:33 AM CST 5:57 PM CST
Nautical Twilight 6:03 AM CST 6:27 PM CST
Astronomical Twilight 5:33 AM CST 6:57 PM CST
Moon 2:11 AM CST (11/9) 2:34 PM CST (11/9)
Length of Visible Light 11h 23m
Length of Day
10h 31m
Waning Crescent, 23% of the Moon is Illuminated
Nov 9
Waning Crescent
Nov 13
New
Nov 20
First Quarter
Nov 28
Full
Dec 6
Last Quarter

Hourly Weather History & Observations

Time (CST) Temp. Heat Index Dew Point Humidity Pressure Visibility Wind Dir Wind Speed Gust Speed Precip Events Conditions
12:15 AM 68.0 °F - 51.8 °F 56% 29.92 in 10.0 mi South 11.5 mph - N/A   Clear
12:35 AM 66.2 °F - 51.8 °F 60% 29.92 in 10.0 mi South 12.7 mph - N/A   Clear
12:55 AM 64.4 °F - 51.8 °F 64% 29.92 in 10.0 mi South 10.4 mph - N/A   Clear
1:15 AM 64.4 °F - 51.8 °F 64% 29.92 in 10.0 mi South 12.7 mph - N/A   Clear
1:35 AM 64.4 °F - 51.8 °F 64% 29.92 in 10.0 mi South 10.4 mph - N/A   Clear
1:55 AM 64.4 °F - 51.8 °F 64% 29.92 in 10.0 mi SSE 9.2 mph - N/A   Clear
2:15 AM 64.4 °F - 51.8 °F 64% 29.92 in 10.0 mi South 8.1 mph - N/A   Clear
2:35 AM 62.6 °F - 51.8 °F 68% 29.92 in 10.0 mi SSE 9.2 mph - N/A   Clear
2:55 AM 62.6 °F - 51.8 °F 68% 29.92 in 10.0 mi SSE 8.1 mph - N/A   Clear
3:15 AM 62.6 °F - 53.6 °F 72% 29.92 in 10.0 mi SSE 8.1 mph - N/A   Clear
3:35 AM 62.6 °F - 53.6 °F 72% 29.92 in 10.0 mi SSE 8.1 mph - N/A   Clear
3:55 AM 62.6 °F - 53.6 °F 72% 29.92 in 10.0 mi South 9.2 mph - N/A   Clear
4:15 AM 60.8 °F - 55.4 °F 82% 29.92 in 10.0 mi South 8.1 mph - N/A   Clear
4:35 AM 60.8 °F - 55.4 °F 82% 29.93 in 10.0 mi South 5.8 mph - N/A   Clear
4:55 AM 60.8 °F - 55.4 °F 82% 29.93 in 10.0 mi SSE 8.1 mph - N/A   Clear
5:15 AM 60.8 °F - 55.4 °F 82% 29.93 in 10.0 mi South 8.1 mph - N/A   Clear
5:35 AM 60.8 °F - 57.2 °F 88% 29.93 in 10.0 mi SSE 8.1 mph - N/A   Clear
5:55 AM 60.8 °F - 59.0 °F 94% 29.93 in 10.0 mi South 8.1 mph - N/A   Clear
6:15 AM 60.8 °F - 59.0 °F 94% 29.93 in 10.0 mi SSE 9.2 mph - N/A   Clear
6:35 AM 60.8 °F - 59.0 °F 94% 29.93 in 10.0 mi SSE 8.1 mph - N/A   Clear
6:55 AM 60.8 °F - 59.0 °F 94% 29.93 in 10.0 mi SSE 8.1 mph - N/A   Clear
7:15 AM 60.8 °F - 60.8 °F 100% 29.94 in 10.0 mi SSE 6.9 mph - N/A   Clear
7:35 AM 60.8 °F - 60.8 °F 100% 29.95 in 10.0 mi SSE 6.9 mph - N/A   Clear
7:55 AM 62.6 °F - 60.8 °F 94% 29.95 in 10.0 mi SSE 6.9 mph - N/A   Clear
8:15 AM 62.6 °F - 60.8 °F 94% 29.96 in 10.0 mi South 9.2 mph - N/A   Clear
8:35 AM 64.4 °F - 60.8 °F 88% 29.96 in 10.0 mi South 13.8 mph - N/A   Clear
8:55 AM 66.2 °F - 60.8 °F 83% 29.96 in 10.0 mi South 12.7 mph 18.4 mph N/A   Clear
9:15 AM 68.0 °F - 60.8 °F 78% 29.96 in 10.0 mi South 13.8 mph - N/A   Scattered Clouds
9:35 AM 68.0 °F - 60.8 °F 78% 29.95 in 10.0 mi South 18.4 mph 21.9 mph N/A   Mostly Cloudy
9:55 AM 69.8 °F - 60.8 °F 73% 29.95 in 10.0 mi South 18.4 mph 24.2 mph N/A   Mostly Cloudy
10:15 AM 71.6 °F - 60.8 °F 69% 29.95 in 10.0 mi South 17.3 mph 23.0 mph N/A   Scattered Clouds
10:35 AM 71.6 °F - 60.8 °F 69% 29.94 in 10.0 mi South 17.3 mph 25.3 mph N/A   Scattered Clouds
10:55 AM 73.4 °F - 60.8 °F 65% 29.94 in 10.0 mi South 19.6 mph 25.3 mph N/A   Scattered Clouds
11:15 AM 73.4 °F - 60.8 °F 65% 29.93 in 10.0 mi South 16.1 mph 24.2 mph N/A   Scattered Clouds
11:35 AM 75.2 °F - 60.8 °F 61% 29.92 in 10.0 mi South 17.3 mph 24.2 mph N/A   Scattered Clouds
11:55 AM 77.0 °F - 60.8 °F 57% 29.91 in 10.0 mi SSW 17.3 mph 24.2 mph N/A   Scattered Clouds
12:15 PM 77.0 °F - 60.8 °F 57% 29.90 in 10.0 mi South 18.4 mph 25.3 mph N/A   Scattered Clouds
12:35 PM 77.0 °F - 60.8 °F 57% 29.89 in 10.0 mi South 20.7 mph 28.8 mph N/A   Scattered Clouds
12:55 PM 78.8 °F - 60.8 °F 54% 29.88 in 10.0 mi South 16.1 mph 28.8 mph N/A   Scattered Clouds
1:15 PM 78.8 °F - 60.8 °F 54% 29.86 in 10.0 mi South 23.0 mph 27.6 mph N/A   Clear
1:35 PM 80.6 °F 81.5 °F 60.8 °F 51% 29.84 in 10.0 mi South 25.3 mph 28.8 mph N/A   Clear
1:55 PM 80.6 °F 81.1 °F 59.0 °F 48% 29.84 in 10.0 mi South 23.0 mph 29.9 mph N/A   Clear
2:15 PM 80.6 °F 81.1 °F 59.0 °F 48% 29.84 in 10.0 mi South 17.3 mph 29.9 mph N/A   Clear
2:35 PM 82.4 °F 82.5 °F 59.0 °F 45% 29.83 in 10.0 mi South 18.4 mph 29.9 mph N/A   Clear
2:55 PM 82.4 °F 82.5 °F 59.0 °F 45% 29.82 in 10.0 mi South 24.2 mph 31.1 mph N/A   Clear
3:15 PM 82.4 °F 82.5 °F 59.0 °F 45% 29.82 in 10.0 mi South 23.0 mph 26.5 mph N/A   Clear
3:35 PM 82.4 °F 82.5 °F 59.0 °F 45% 29.82 in 10.0 mi South 18.4 mph 25.3 mph N/A   Clear
3:55 PM 80.6 °F 80.8 °F 57.2 °F 45% 29.82 in 10.0 mi South 19.6 mph 28.8 mph N/A   Clear
4:15 PM 80.6 °F 80.8 °F 57.2 °F 45% 29.82 in 10.0 mi South 19.6 mph 26.5 mph N/A   Clear
4:35 PM 80.6 °F 80.5 °F 55.4 °F 42% 29.82 in 10.0 mi South 23.0 mph 28.8 mph N/A   Clear
4:55 PM 80.6 °F 80.5 °F 55.4 °F 42% 29.82 in 10.0 mi South 18.4 mph 27.6 mph N/A   Clear
5:15 PM 78.8 °F - 55.4 °F 44% 29.82 in 10.0 mi South 18.4 mph - N/A   Clear
5:35 PM 77.0 °F - 55.4 °F 47% 29.82 in 10.0 mi South 16.1 mph 23.0 mph N/A   Clear
5:55 PM 77.0 °F - 53.6 °F 44% 29.83 in 10.0 mi South 15.0 mph 23.0 mph N/A   Clear
6:15 PM 75.2 °F - 53.6 °F 47% 29.84 in 10.0 mi South 13.8 mph - N/A   Clear
6:35 PM 73.4 °F - 55.4 °F 53% 29.84 in 10.0 mi South 11.5 mph - N/A   Clear
6:55 PM 73.4 °F - 55.4 °F 53% 29.84 in 10.0 mi South 13.8 mph - N/A   Clear
7:15 PM 73.4 °F - 55.4 °F 53% 29.86 in 10.0 mi South 12.7 mph 18.4 mph N/A   Clear
7:35 PM 71.6 °F - 55.4 °F 57% 29.87 in 10.0 mi South 11.5 mph - N/A   Clear
7:55 PM 71.6 °F - 55.4 °F 57% 29.87 in 10.0 mi South 9.2 mph - N/A   Clear
8:15 PM 71.6 °F - 53.6 °F 53% 29.87 in 10.0 mi South 11.5 mph - N/A   Clear
8:35 PM 71.6 °F - 53.6 °F 53% 29.88 in 10.0 mi South 12.7 mph - N/A   Clear
8:55 PM 71.6 °F - 53.6 °F 53% 29.88 in 10.0 mi South 12.7 mph - N/A   Clear
9:15 PM 69.8 °F - 53.6 °F 56% 29.89 in 10.0 mi South 9.2 mph - N/A   Clear
9:35 PM 69.8 °F - 53.6 °F 56% 29.89 in 10.0 mi South 11.5 mph - N/A   Clear
9:55 PM 68.0 °F - 55.4 °F 64% 29.89 in 10.0 mi South 10.4 mph - N/A   Clear
10:15 PM 69.8 °F - 55.4 °F 60% 29.90 in 10.0 mi South 10.4 mph - N/A   Clear
10:35 PM 68.0 °F - 55.4 °F 64% 29.90 in 10.0 mi South 10.4 mph - N/A   Clear
10:55 PM 68.0 °F - 55.4 °F 64% 29.89 in 10.0 mi South 12.7 mph - N/A   Clear
11:15 PM 68.0 °F - 55.4 °F 64% 29.89 in 10.0 mi South 13.8 mph - N/A   Clear
11:35 PM 68.0 °F - 55.4 °F 64% 29.89 in 10.0 mi South 12.7 mph - N/A   Clear
11:55 PM 68.0 °F - 55.4 °F 64% 29.89 in 10.0 mi SSE 11.5 mph - N/A   Clear